User: anonymous   Login
Location: Bojarzin Observatory
(39.7980°N, 89.7627°W)
Time: 21:59:29
(UTC-05:00)
Language:

ISS - Orbit

View from above orbital plane
View from above orbital plane
View from above satellite
View from above satellite

Ground track
Ground track

The orbit data is extracted from the following two-line orbital elements,

1 25544U 98067A   16205.91750087  .00000476  00000-0  14100-4 0  9998
2 25544  51.6432 234.7708 0002109  74.8935 347.2055 15.54871598 10709
Epoch (UTC): 23 July 2016 22:01:12
Eccentricity: 0.0002109
inclination: 51.6432°
perigee height: 401 km
apogee height: 404 km
right ascension of ascending node: 234.7708°
argument of perigee: 74.8935°
revolutions per day: 15.54871598
mean anomaly at epoch: 347.2055°
orbit number at epoch: 1070

The dashed part of the orbit path shows where the satellite is in the earth's shadow,  

DLR